RH
44 37 27 24 22 22 22 22 21 20 21 23 24 26 30 35 34 35 34 33 36 63 40 39 45 53 53 58 59 60 76 81 69 65 55 48 49 43 39 42 42 58 63 74 91
28 24 24 22 21 20 20 20 20 21 23 22 22 26 31 39 38 37 28 31 37 49 40 49 61 60 62 62 63 70 83 74 60 54 56 50 53 49 48 47 47 46 51 85 99
21 21 21 21 23 23 23 23 22 22 22 22 21 26 34 38 31 24 26 29 33 42 41 44 55 58 59 62 61 68 79 66 56 54 54 55 56 51 53 55 47 43 58 87 98
22 22 23 23 23 24 25 24 26 25 23 22 21 26 33 33 23 23 26 27 29 32 37 42 55 62 68 66 63 68 64 60 60 56 59 57 53 52 54 47 40 46 54 69 90
26 25 25 24 23 23 22 23 23 23 24 22 20 26 36 24 24 22 25 26 28 32 37 43 53 63 63 70 74 84 73 61 62 61 61 56 54 52 54 47 45 48 60 76 84
27 24 22 22 23 24 24 25 25 22 22 23 22 28 38 21 20 24 26 26 28 32 38 44 45 54 68 76 76 66 72 68 65 58 59 64 62 63 52 52 63 73 73 83 85
16 15 14 13 16 17 20 23 21 24 24 26 24 34 41 22 23 23 25 28 30 33 38 40 44 53 60 67 63 69 73 54 45 44 53 59 58 58 46 62 71 79 90 96 97
15 14 14 14 12 14 20 21 21 22 25 25 28 45 32 22 21 21 26 30 31 35 38 41 48 56 65 60 50 52 52 60 41 45 41 51 56 39 46 84 76 87 93 93 98
15 15 14 13 13 20 15 16 30 29 24 28 41 37 21 20 19 24 28 33 33 42 44 48 47 55 45 59 58 56 67 63 56 42 46 45 52 40 44 81 87 94 95 95 93
17 17 15 13 13 19 14 18 33 36 38 42 42 22 16 19 26 26 30 31 36 33 35 42 51 47 56 59 56 59 70 67 66 48 52 54 48 44 48 84 94 92 94 97 98
18 17 15 14 15 20 12 19 33 20 34 28 30 27 26 29 30 27 31 32 33 37 39 48 44 48 51 56 57 68 73 73 60 47 58 56 48 53 81 82 91 95 95 95 92
18 17 16 14 19 23 19 57 59 61 57 48 45 42 34 33 28 25 28 31 34 36 44 40 33 39 53 52 53 57 59 56 55 51 48 48 45 45 62 83 83 90 93 94 96
20 18 17 15 20 28 44 59 61 70 67 43 41 38 30 31 32 29 34 38 39 33 48 41 32 45 44 42 57 50 52 60 66 60 46 48 36 42 47 49 40 54 82 91 92
21 19 17 15 20 39 51 58 61 67 40 22 25 25 26 34 20 32 36 35 32 36 47 35 36 45 49 30 54 49 51 59 65 50 54 47 44 40 40 37 37 48 74 86 95
21 20 18 20 28 46 50 53 62 56 45 16 22 25 27 27 32 23 37 32 36 37 28 18 41 52 38 29 51 42 52 60 61 55 49 50 51 44 44 41 38 38 53 93 91
22 22 20 25 33 45 49 54 55 49 34 20 25 26 21 26 30 32 29 29 34 24 29 37 36 46 38 48 42 43 42 39 55 56 70 55 61 50 51 50 39 30 31 41 76
23 22 29 32 45 45 48 40 51 49 17 22 28 27 29 30 26 29 31 41 36 37 40 30 21 25 41 38 41 54 52 60 52 70 59 55 58 45 46 53 48 43 34 34 38
24 22 35 50 48 44 42 29 22 17 19 29 25 23 26 32 25 25 21 40 34 29 39 43 43 26 31 45 52 55 52 64 36 61 60 50 50 56 45 42 42 40 38 36 38
24 25 47 50 45 47 33 45 32 18 30 34 22 15 20 22 21 24 21 38 38 32 32 33 27 25 38 41 43 43 66 53 63 64 54 54 39 42 45 48 53 52 48 44 45
27 33 42 52 45 40 35 36 21 29 35 31 19 23 25 26 24 29 22 30 38 34 31 31 40 28 29 26 26 47 46 38 56 53 54 45 39 65 61 63 62 59 54 52 54
31 34 39 50 48 48 38 34 28 35 35 32 27 28 28 28 30 29 22 27 37 37 36 38 39 32 26 25 26 43 36 44 48 61 44 50 44 50 58 69 70 64 60 60 58
31 40 44 48 37 78 43 39 40 31 39 34 35 32 31 34 32 28 24 24 35 33 33 38 48 49 30 28 31 41 38 34 44 38 52 48 51 55 63 67 70 70 64 58 57
36 41 46 43 38 31 35 40 41 32 33 38 38 37 35 35 29 27 24 31 32 27 27 30 33 42 36 33 30 31 38 41 48 52 53 55 46 70 75 73 71 70 61 54 51
42 38 45 62 59 30 33 28 28 38 37 38 37 33 35 32 36 35 35 30 34 29 46 35 42 32 43 34 28 34 34 42 39 68 50 51 46 85 88 84 69 76 61 55 53
45 42 42 44 52 51 43 46 39 31 38 38 35 35 33 33 34 36 32 32 27 47 51 47 52 54 46 44 43 43 46 47 53 48 49 46 67 93 89 86 74 75 59 55 54
49 46 64 46 54 60 57 53 50 37 37 35 37 40 39 37 34 31 34 33 35 35 50 62 50 58 72 56 54 60 52 55 56 52 53 55 92 78 74 70 60 73 62 60 61
58 56 42 48 57 55 47 44 37 38 32 34 37 36 34 34 32 33 36 35 38 34 49 51 60 57 74 52 49 55 81 69 85 84 87 78 88 71 73 60 64 70 65 66 66
Wind_Speed
10 10 9 10 10 10 10 11 11 11 12 13 14 14 14 11 5 4 2 4 5 8 11 12 9 11 3 3 2 2 2 3 4 3 4 5 5 3 3 9 8 5 10 7 11
11 12 11 12 12 11 11 11 11 11 11 12 13 13 14 8 1 4 4 5 6 8 9 9 6 8 3 2 1 2 1 5 6 4 7 8 6 11 5 11 9 11 15 8 16
12 12 12 12 12 13 13 13 13 12 12 12 12 13 12 4 1 3 6 6 7 8 6 4 3 2 3 2 0 2 4 3 11 13 11 14 11 5 6 10 9 8 8 6 14
12 13 13 13 14 15 15 15 15 14 13 12 11 11 8 2 2 1 6 8 8 5 2 3 4 3 2 3 1 3 8 8 7 6 6 13 6 5 7 11 14 9 11 8 13
14 14 14 15 15 16 16 15 16 15 14 12 10 8 3 3 5 4 7 10 5 3 1 1 2 1 3 3 4 4 4 4 9 15 12 12 15 9 10 17 11 12 13 12 15
14 15 17 18 18 20 19 18 20 17 15 11 7 5 2 2 2 4 9 9 4 4 1 2 2 2 2 3 2 2 6 15 10 8 5 5 5 7 12 2 7 8 6 8 12
16 17 19 20 20 21 19 20 22 18 12 8 4 1 1 7 2 7 7 7 3 3 2 2 3 2 1 5 3 4 6 9 3 3 4 3 5 7 13 5 9 4 5 11 2
18 20 22 22 23 23 20 23 18 9 5 1 2 1 5 1 4 6 8 1 6 1 1 1 3 3 1 4 6 4 1 5 7 7 3 1 7 8 4 7 5 5 11 7 6
20 22 24 25 26 22 23 24 6 5 2 2 2 1 5 3 3 6 6 5 2 5 5 6 2 2 4 4 4 6 5 6 8 3 3 1 7 4 7 7 3 8 12 3 9
21 23 24 26 26 21 23 14 4 2 2 1 2 2 2 2 5 3 4 4 2 2 2 5 4 3 3 6 5 8 5 5 6 6 5 5 6 7 8 8 2 4 9 2 4
21 23 25 25 23 21 21 4 7 3 6 1 4 3 4 9 3 3 6 2 2 8 4 4 5 3 6 3 6 5 3 6 5 3 5 6 5 8 9 9 9 3 7 6 4
21 22 24 25 17 17 15 8 2 3 7 3 3 4 5 4 4 3 10 3 5 3 6 5 2 4 6 3 5 3 4 5 8 3 4 6 12 7 13 9 8 12 7 2 2
20 23 24 24 10 13 17 7 3 1 1 6 2 2 3 4 2 4 4 2 4 4 5 1 3 6 3 4 7 2 3 5 5 7 1 4 17 12 5 6 14 11 9 2 4
19 22 24 23 4 11 4 9 4 1 4 5 4 3 2 0 2 3 3 1 3 4 3 3 4 6 5 2 1 5 1 3 5 3 3 7 6 10 11 16 17 17 14 10 4
19 21 21 16 8 4 8 10 4 1 5 4 4 1 2 3 3 3 3 3 1 3 4 3 6 6 5 5 0 7 4 2 3 3 3 12 6 10 8 16 19 17 17 12 4
18 19 17 9 6 7 11 8 1 5 4 4 2 5 5 5 5 7 5 6 1 2 2 4 3 0 3 5 2 8 2 4 3 2 5 4 2 10 7 8 15 20 16 14 12
19 18 12 10 5 11 10 2 5 4 3 4 3 5 1 4 5 6 5 6 4 5 6 6 2 4 2 6 5 9 6 3 5 5 1 5 6 3 6 7 7 11 16 16 14
19 17 8 6 8 8 3 5 0 2 2 3 3 3 3 4 3 7 2 4 4 4 1 3 7 6 7 3 3 5 4 3 2 1 3 5 3 3 4 6 10 10 12 16 17
17 10 5 6 6 5 4 4 5 4 2 6 4 3 4 2 2 5 3 0 1 3 3 4 4 2 2 1 1 4 5 1 4 1 1 3 2 3 15 19 20 19 19 19 18
13 6 3 6 6 3 4 4 3 2 2 1 2 2 2 4 4 5 2 1 2 2 2 1 4 1 4 1 3 5 1 3 3 2 2 3 0 2 11 15 15 17 17 16 16
5 3 1 5 2 4 3 5 3 3 1 2 1 3 1 2 1 2 1 2 2 1 3 2 2 6 1 3 2 3 3 5 4 2 1 2 2 3 4 7 9 12 13 14 16
3 3 3 3 3 1 2 4 2 2 1 2 2 2 2 1 2 2 1 1 2 1 1 1 3 3 3 4 3 2 4 4 3 3 2 2 3 1 1 4 8 11 13 13 13
2 2 2 2 1 2 3 3 3 1 3 2 2 3 1 1 2 2 1 0 3 1 1 2 1 4 6 3 2 3 1 4 5 3 5 4 1 1 5 7 8 10 11 11 13
3 3 3 3 1 3 1 3 3 2 2 2 2 2 1 2 2 2 2 1 4 2 6 2 2 6 6 6 2 5 4 4 4 3 3 5 5 2 6 9 12 10 12 13 13
2 4 2 2 2 3 2 1 3 2 2 2 1 3 4 3 1 3 2 4 3 4 3 3 4 4 6 8 4 7 9 5 7 5 5 2 4 5 8 9 9 7 12 15 17
4 3 1 1 2 5 3 4 6 3 5 3 4 5 4 5 7 4 2 2 6 3 2 2 3 1 4 6 3 5 7 6 5 2 5 4 4 4 4 7 12 11 14 15 17
4 2 2 3 3 4 5 6 5 3 1 1 4 4 3 5 4 5 6 5 3 3 2 1 2 2 5 4 6 5 2 2 4 5 2 1 4 9 7 12 10 9 12 14 16
Wind_Direction
12 6 1 352 346 341 341 340 344 350 350 350 350 350 347 344 323 320 323 339 342 344 349 353 8 17 74 68 65 123 82 253 252 223 239 235 261 261 260 262 278 246 284 283 164
8 5 1 358 352 346 342 340 340 341 342 346 348 347 347 349 339 300 347 342 338 338 343 9 358 3 44 43 38 99 171 234 219 220 250 262 264 280 277 275 274 279 272 238 169
17 13 10 3 354 347 342 337 334 331 330 335 347 345 347 360 58 272 350 335 333 314 325 1 22 58 53 4 148 158 223 224 263 244 251 266 269 234 251 275 246 267 274 187 191
19 13 6 358 351 346 338 333 330 326 322 323 334 345 349 23 44 270 351 340 320 310 321 10 31 38 14 330 293 275 244 250 273 254 266 259 248 224 224 258 257 244 258 241 196
16 7 358 353 349 343 337 337 332 323 314 313 322 343 4 25 253 290 310 325 312 312 305 117 65 108 326 289 310 203 271 281 264 286 274 262 251 257 271 263 274 269 251 235 200
5 355 352 347 344 344 337 333 327 315 304 299 307 329 129 317 250 305 307 321 312 303 248 195 185 188 255 256 191 253 271 284 287 285 262 255 281 162 248 282 271 276 290 189 201
2 354 352 347 344 341 335 331 326 314 294 280 268 293 160 224 320 330 327 320 319 301 281 256 171 120 59 299 290 289 315 323 231 293 285 189 278 231 258 324 285 349 79 81 23
356 352 354 350 346 342 337 330 329 333 332 225 169 173 240 226 312 341 347 42 345 328 213 317 147 99 153 307 351 334 56 345 298 341 2 336 284 282 350 325 312 158 92 85 82
354 352 353 350 348 345 339 328 335 349 26 125 154 143 287 334 5 352 349 333 353 64 93 104 73 75 21 9 352 14 300 303 312 310 311 328 284 298 332 351 329 126 123 141 89
353 352 353 350 348 348 344 339 5 6 39 81 87 58 324 307 307 318 342 352 79 108 61 53 49 50 40 39 327 301 324 293 265 307 354 329 299 323 345 350 334 116 111 202 160
353 352 352 350 349 355 357 3 12 352 42 263 303 269 316 320 312 9 352 22 32 56 18 351 59 338 294 233 233 273 244 269 270 309 351 335 332 1 349 20 39 22 151 169 168
351 351 351 348 348 5 22 67 86 305 315 333 251 282 273 322 342 353 3 50 46 26 339 17 34 306 272 253 272 271 294 329 297 326 27 347 28 18 20 7 12 22 332 194 188
350 350 350 349 358 10 53 56 354 296 306 313 275 298 321 355 342 297 24 103 71 25 26 144 301 320 346 330 356 322 22 317 264 319 73 336 42 33 355 21 34 12 10 87 175
349 350 351 354 37 358 52 1 347 292 52 317 357 12 345 54 347 318 4 58 35 20 2 248 322 350 323 359 29 335 63 277 307 33 18 353 51 13 349 32 30 10 4 347 137
347 348 351 2 341 41 330 337 331 111 24 291 309 259 322 66 313 345 357 22 60 320 87 306 344 354 335 329 320 259 346 3 334 75 41 360 68 348 6 17 7 9 21 21 35
342 346 350 357 6 349 334 330 358 41 263 355 304 354 18 17 351 321 17 43 103 117 47 260 286 212 271 318 274 291 47 42 46 53 42 324 64 18 10 344 354 7 13 18 17
337 341 347 354 341 333 336 20 29 122 330 327 329 13 11 329 3 32 24 15 33 20 360 326 346 328 356 351 358 14 37 3 20 18 239 328 68 61 346 336 340 345 357 4 9
333 334 335 2 339 340 352 49 92 319 327 355 334 317 60 10 22 353 43 26 26 53 38 33 336 19 335 62 305 350 50 105 124 1 295 325 57 355 318 322 353 17 11 11 11
330 332 322 339 346 349 67 55 223 197 264 336 319 40 353 20 6 26 49 329 264 39 39 10 289 327 56 344 75 332 35 232 99 44 79 335 20 248 359 3 10 11 12 12 8
330 327 308 337 345 30 72 229 249 238 337 34 303 40 325 320 22 32 355 312 16 34 104 290 305 316 293 143 52 102 173 31 11 36 12 329 100 333 352 349 359 23 19 13 19
336 9 346 334 354 50 162 223 269 277 181 154 245 294 262 292 292 295 307 28 18 25 69 114 113 288 12 33 258 1 39 65 117 77 100 319 243 10 326 352 19 24 21 13 10
69 317 352 336 31 3 177 210 238 252 227 263 154 218 217 250 295 289 270 240 316 153 69 220 155 283 270 302 273 238 152 128 122 234 144 171 244 169 238 5 26 23 16 12 14
134 249 0 22 210 264 275 278 241 215 235 220 222 205 196 232 318 227 280 258 35 29 96 191 311 335 358 354 339 292 56 91 90 80 215 162 225 90 0 3 12 26 16 14 10
95 276 340 60 41 152 246 251 263 198 246 196 217 122 158 240 183 279 283 245 328 312 38 107 175 189 204 227 184 282 195 192 145 164 205 227 141 2 18 9 1 6 5 7 7
117 233 189 212 226 176 195 276 245 220 214 196 219 201 188 227 268 235 249 328 329 7 72 109 235 181 260 267 232 253 268 220 198 201 194 288 126 8 354 349 354 2 5 5 2
157 165 22 155 111 146 206 235 213 239 169 236 222 182 177 202 201 240 187 195 239 6 74 10 271 316 261 278 274 260 267 243 230 223 257 150 117 357 325 341 3 19 7 1 355
170 159 151 146 144 137 214 219 222 187 213 217 203 145 201 237 223 229 212 214 209 160 125 260 183 19 275 347 311 294 317 83 108 66 352 178 56 7 342 345 356 24 8 355 351